| time (UTC) | temp F | wind direction | speed knots | gust knots | rain 1hr in | rain 24hr in | rain mn in | humidity % | barometer mb |
| 20260506024559 | 56 | 0 | 0.0 | 2.6 | 0.00 | 0.13 | 0.13 | 97 | 1004.9 |
| 20260506024038 | 56 | 108 | 0.0 | 2.6 | 0.00 | 0.13 | 0.13 | 96 | 1005.0 |
| 20260506023539 | 56 | 0 | 0.0 | 2.6 | 0.00 | 0.13 | 0.13 | 95 | 1005.1 |
| 20260506023047 | 57 | 0 | 0.0 | 2.6 | 0.00 | 0.13 | 0.13 | 94 | 1005.2 |
| 20260506022538 | 57 | 98 | 0.9 | 2.6 | 0.00 | 0.13 | 0.13 | 93 | 1005.1 |
| 20260506022038 | 57 | 98 | 0.9 | 1.7 | 0.00 | 0.13 | 0.13 | 92 | 1005.1 |
| 20260506021556 | 58 | 94 | 0.0 | 2.6 | 0.00 | 0.13 | 0.13 | 92 | 1005.1 |
| 20260506021038 | 57 | 0 | 0.0 | 2.6 | 0.00 | 0.13 | 0.13 | 92 | 1005.0 |
| 20260506020538 | 57 | 99 | 1.7 | 2.6 | 0.00 | 0.13 | 0.13 | 92 | 1005.0 |
| 20260506020047 | 57 | 100 | 0.9 | 2.6 | 0.00 | 0.13 | 0.13 | 92 | 1005.1 |
| 20260506015538 | 57 | 115 | 0.9 | 2.6 | 0.00 | 0.13 | 0.13 | 93 | 1005.2 |
| 20260506015038 | 57 | 115 | 0.0 | 1.7 | 0.00 | 0.13 | 0.13 | 93 | 1005.3 |
| 20260506014545 | 57 | 0 | 0.0 | 1.7 | 0.00 | 0.13 | 0.13 | 92 | 1005.3 |
| 20260506014038 | 57 | 113 | 0.9 | 1.7 | 0.00 | 0.13 | 0.13 | 93 | 1005.2 |
| 20260506013538 | 57 | 108 | 0.0 | 1.7 | 0.00 | 0.13 | 0.13 | 94 | 1005.2 |
| 20260506013048 | 57 | 0 | 0.0 | 2.6 | 0.00 | 0.13 | 0.13 | 93 | 1005.2 |
| 20260506012538 | 57 | 0 | 0.0 | 2.6 | 0.00 | 0.13 | 0.13 | 92 | 1005.0 |
| 20260506012038 | 58 | 115 | 0.9 | 2.6 | 0.00 | 0.13 | 0.13 | 91 | 1004.9 |
| 20260506011608 | 58 | 90 | 0.0 | 1.7 | 0.00 | 0.13 | 0.13 | 91 | 1004.9 |
| 20260506011038 | 58 | 0 | 0.0 | 1.7 | 0.00 | 0.13 | 0.13 | 90 | 1004.7 |
| 20260506010538 | 58 | 0 | 0.0 | 0.9 | 0.00 | 0.13 | 0.13 | 91 | 1004.7 |
| 20260506010045 | 58 | 0 | 0.0 | 1.7 | 0.00 | 0.13 | 0.13 | 91 | 1004.4 |
| 20260506005538 | 58 | 0 | 0.0 | 1.7 | 0.00 | 0.13 | 0.13 | 91 | 1004.4 |
| 20260506005043 | 58 | 102 | 0.0 | 1.7 | 0.00 | 0.13 | 0.13 | 91 | 1004.2 |
| 20260506004547 | 58 | 116 | 0.0 | 0.9 | 0.00 | 0.13 | 0.13 | 91 | 1004.1 |
| 20260506004038 | 58 | 0 | 0.0 | 0.9 | 0.00 | 0.13 | 0.13 | 91 | 1004.0 |
| 20260506003539 | 57 | 0 | 0.0 | 1.7 | 0.00 | 0.13 | 0.13 | 92 | 1004.1 |
| 20260506003047 | 57 | 0 | 0.0 | 2.6 | 0.00 | 0.13 | 0.13 | 93 | 1004.2 |
| 20260506002538 | 57 | 0 | 0.9 | 2.6 | 0.00 | 0.13 | 0.13 | 94 | 1004.1 |
| 20260506002038 | 57 | 0 | 0.0 | 0.9 | 0.00 | 0.13 | 0.13 | 94 | 1004.1 |
| 20260506001551 | 57 | 0 | 0.0 | 0.9 | 0.00 | 0.13 | 0.13 | 94 | 1004.0 |
| 20260506001038 | 57 | 0 | 0.0 | 0.9 | 0.01 | 0.13 | 0.13 | 93 | 1004.0 |
| 20260506000538 | 57 | 0 | 0.0 | 0.9 | 0.01 | 0.13 | 0.13 | 95 | 1003.9 |
| 20260506000057 | 57 | 89 | 0.0 | 0.9 | 0.01 | 0.13 | 0.13 | 96 | 1003.8 |
| 20260505235538 | 57 | 0 | 0.0 | 0.9 | 0.01 | 0.13 | 0.13 | 96 | 1003.9 |
| 20260505235038 | 57 | 0 | 0.0 | 0.0 | 0.01 | 0.13 | 0.13 | 96 | 1003.8 |
| 20260505234550 | 57 | 0 | 0.0 | 0.9 | 0.01 | 0.13 | 0.13 | 96 | 1003.7 |
| 20260505234042 | 57 | 0 | 0.0 | 1.7 | 0.02 | 0.13 | 0.13 | 95 | 1003.7 |
| 20260505233538 | 57 | 0 | 0.0 | 3.5 | 0.02 | 0.13 | 0.13 | 95 | 1003.6 |
| 20260505233048 | 57 | 88 | 0.9 | 3.5 | 0.03 | 0.13 | 0.13 | 95 | 1003.3 |
| 20260505232538 | 57 | 0 | 0.0 | 3.5 | 0.03 | 0.13 | 0.13 | 94 | 1002.9 |
| 20260505232039 | 57 | 148 | 0.9 | 5.2 | 0.04 | 0.13 | 0.13 | 94 | 1002.9 |
| 20260505231549 | 58 | 328 | 0.9 | 5.2 | 0.04 | 0.13 | 0.13 | 94 | 1003.5 |
| 20260505231038 | 58 | 105 | 0.9 | 5.2 | 0.04 | 0.12 | 0.12 | 94 | 1003.6 |
| 20260505230538 | 58 | 172 | 0.9 | 7.8 | 0.05 | 0.12 | 0.12 | 94 | 1003.5 |
| 20260505230047 | 58 | 280 | 1.7 | 7.8 | 0.05 | 0.12 | 0.12 | 93 | 1003.5 |
| 20260505225535 | 58 | 219 | 2.6 | 7.8 | 0.06 | 0.12 | 0.12 | 93 | 1003.4 |
| 20260505225038 | 58 | 252 | 3.5 | 10.4 | 0.07 | 0.12 | 0.12 | 93 | 1003.1 |
| 20260505224550 | 58 | 231 | 4.3 | 11.3 | 0.08 | 0.12 | 0.12 | 93 | 1003.1 |
| 20260505224039 | 58 | 244 | 6.1 | 11.3 | 0.11 | 0.11 | 0.11 | 93 | 1003.0 |
| 20260505223545 | 58 | 271 | 7.0 | 13.0 | 0.11 | 0.11 | 0.11 | 93 | 1003.0 |
| 20260505223048 | 58 | 247 | 7.0 | 14.8 | 0.10 | 0.10 | 0.10 | 92 | 1002.9 |
| 20260505222538 | 58 | 248 | 8.7 | 14.8 | 0.10 | 0.10 | 0.10 | 91 | 1002.9 |
| 20260505222038 | 59 | 249 | 7.8 | 14.8 | 0.09 | 0.09 | 0.09 | 91 | 1002.9 |
| 20260505221600 | 59 | 243 | 7.8 | 18.2 | 0.08 | 0.08 | 0.08 | 91 | 1002.8 |
| 20260505221039 | 59 | 190 | 8.7 | 21.7 | 0.07 | 0.07 | 0.07 | 90 | 1003.0 |
| 20260505220539 | 59 | 260 | 10.4 | 21.7 | 0.07 | 0.07 | 0.07 | 88 | 1002.9 |
| 20260505220104 | 60 | 227 | 13.0 | 20.9 | 0.07 | 0.07 | 0.07 | 89 | 1002.7 |
| 20260505215541 | 60 | 250 | 9.6 | 16.5 | 0.06 | 0.06 | 0.06 | 89 | 1002.4 |
| 20260505215038 | 60 | 271 | 10.4 | 27.8 | 0.05 | 0.05 | 0.05 | 88 | 1002.3 |
| 20260505214553 | 62 | 265 | 13.9 | 27.8 | 0.04 | 0.04 | 0.04 | 84 | 1002.0 |
| 20260505214039 | 68 | 257 | 17.4 | 27.8 | 0.00 | 0.00 | 0.00 | 71 | 1002.1 |
| 20260505213539 | 72 | 259 | 3.5 | 9.6 | 0.00 | 0.00 | 0.00 | 56 | 1000.5 |
| 20260505213052 | 72 | 92 | 3.5 | 9.6 | 0.00 | 0.00 | 0.00 | 56 | 999.7 |
| 20260505212538 | 72 | 103 | 2.6 | 12.2 | 0.00 | 0.00 | 0.00 | 55 | 999.7 |
| 20260505212038 | 72 | 96 | 4.3 | 12.2 | 0.00 | 0.00 | 0.00 | 55 | 999.3 |
| 20260505211547 | 72 | 74 | 3.5 | 9.6 | 0.00 | 0.00 | 0.00 | 55 | 999.4 |
| 20260505211037 | 73 | 67 | 2.6 | 10.4 | 0.00 | 0.00 | 0.00 | 55 | 999.2 |
| 20260505210538 | 73 | 77 | 2.6 | 10.4 | 0.00 | 0.00 | 0.00 | 54 | 999.3 |
| 20260505210052 | 72 | 87 | 1.7 | 9.6 | 0.00 | 0.00 | 0.00 | 55 | 999.3 |
| 20260505205538 | 72 | 71 | 3.5 | 8.7 | 0.00 | 0.00 | 0.00 | 55 | 999.4 |
| 20260505205039 | 72 | 75 | 4.3 | 13.9 | 0.00 | 0.00 | 0.00 | 55 | 999.4 |
| 20260505204557 | 72 | 46 | 2.6 | 13.9 | 0.00 | 0.00 | 0.00 | 55 | 999.4 |
| 20260505204041 | 72 | 122 | 4.3 | 13.9 | 0.00 | 0.00 | 0.00 | 54 | 999.3 |
| 20260505203540 | 73 | 86 | 1.7 | 7.8 | 0.00 | 0.00 | 0.00 | 52 | 999.3 |
| 20260505203050 | 73 | 0 | 1.7 | 13.0 | 0.00 | 0.00 | 0.00 | 53 | 999.4 |
| 20260505202539 | 74 | 169 | 1.7 | 13.0 | 0.00 | 0.00 | 0.00 | 51 | 999.4 |
| 20260505202038 | 75 | 46 | 4.3 | 13.0 | 0.00 | 0.00 | 0.00 | 47 | 999.4 |
| 20260505201555 | 75 | 86 | 1.7 | 12.2 | 0.00 | 0.00 | 0.00 | 43 | 999.4 |
| 20260505201039 | 76 | 4 | 3.5 | 12.2 | 0.00 | 0.00 | 0.00 | 43 | 999.2 |
| 20260505200538 | 76 | 95 | 4.3 | 12.2 | 0.00 | 0.00 | 0.00 | 43 | 999.1 |
| 20260505200048 | 76 | 260 | 4.3 | 12.2 | 0.00 | 0.00 | 0.00 | 43 | 999.3 |
| 20260505195538 | 76 | 147 | 1.7 | 9.6 | 0.00 | 0.00 | 0.00 | 45 | 999.4 |
| 20260505195038 | 76 | 65 | 1.7 | 11.3 | 0.00 | 0.00 | 0.00 | 44 | 999.4 |
| 20260505194558 | 77 | 100 | 4.3 | 11.3 | 0.00 | 0.00 | 0.00 | 43 | 999.4 |
| 20260505194040 | 77 | 34 | 5.2 | 11.3 | 0.00 | 0.00 | 0.00 | 43 | 999.3 |
| 20260505193539 | 78 | 300 | 3.5 | 13.0 | 0.00 | 0.00 | 0.00 | 43 | 999.3 |
| 20260505193046 | 78 | 16 | 5.2 | 13.0 | 0.00 | 0.00 | 0.00 | 43 | 999.4 |
| 20260505192538 | 78 | 283 | 3.5 | 11.3 | 0.00 | 0.00 | 0.00 | 44 | 999.6 |
| 20260505192036 | 78 | 75 | 4.3 | 11.3 | 0.00 | 0.00 | 0.00 | 43 | 999.6 |
| 20260505191550 | 78 | 326 | 4.3 | 11.3 | 0.00 | 0.00 | 0.00 | 44 | 999.5 |
| 20260505191037 | 77 | 242 | 2.6 | 14.8 | 0.00 | 0.00 | 0.00 | 44 | 999.6 |
| 20260505190539 | 77 | 44 | 4.3 | 14.8 | 0.00 | 0.00 | 0.00 | 45 | 999.6 |
| 20260505190051 | 76 | 257 | 3.5 | 13.0 | 0.00 | 0.00 | 0.00 | 46 | 999.8 |
| 20260505185539 | 76 | 34 | 5.2 | 14.8 | 0.00 | 0.00 | 0.00 | 46 | 999.9 |
| 20260505185043 | 77 | 70 | 5.2 | 14.8 | 0.00 | 0.00 | 0.00 | 45 | 999.8 |
| 20260505184552 | 76 | 68 | 5.2 | 14.8 | 0.00 | 0.00 | 0.00 | 47 | 999.8 |
| 20260505184041 | 76 | 258 | 2.6 | 10.4 | 0.00 | 0.00 | 0.00 | 46 | 1000.1 |
| 20260505183543 | 76 | 273 | 3.5 | 9.6 | 0.00 | 0.00 | 0.00 | 46 | 1000.1 |
| 20260505183052 | 76 | 266 | 3.5 | 8.7 | 0.00 | 0.00 | 0.00 | 47 | 1000.3 |
| 20260505182538 | 76 | 293 | 3.5 | 8.7 | 0.00 | 0.00 | 0.00 | 47 | 1000.3 |
| 20260505182038 | 76 | 203 | 2.6 | 9.6 | 0.00 | 0.00 | 0.00 | 46 | 1000.4 |
| 20260505181548 | 76 | 293 | 2.6 | 13.9 | 0.00 | 0.00 | 0.00 | 47 | 1000.4 |
| 20260505181040 | 76 | 83 | 4.3 | 13.9 | 0.00 | 0.00 | 0.00 | 47 | 1000.5 |
| 20260505180538 | 76 | 186 | 3.5 | 13.9 | 0.00 | 0.00 | 0.00 | 46 | 1000.5 |
| 20260505180055 | 76 | 105 | 2.6 | 12.2 | 0.00 | 0.00 | 0.00 | 47 | 1000.7 |
| 20260505175541 | 75 | 243 | 4.3 | 12.2 | 0.00 | 0.00 | 0.00 | 46 | 1000.6 |
| 20260505175041 | 76 | 2 | 5.2 | 12.2 | 0.00 | 0.00 | 0.00 | 45 | 1000.7 |
| 20260505174548 | 76 | 74 | 2.6 | 10.4 | 0.00 | 0.00 | 0.00 | 46 | 1000.8 |
| 20260505174039 | 77 | 200 | 3.5 | 10.4 | 0.00 | 0.00 | 0.00 | 46 | 1000.8 |
| 20260505173539 | 77 | 14 | 4.3 | 15.6 | 0.00 | 0.00 | 0.00 | 46 | 1000.9 |
| 20260505173048 | 77 | 32 | 2.6 | 15.6 | 0.00 | 0.00 | 0.00 | 46 | 1001.1 |
| 20260505172540 | 77 | 72 | 3.5 | 10.4 | 0.00 | 0.00 | 0.00 | 46 | 1001.0 |
| 20260505172040 | 77 | 352 | 3.5 | 10.4 | 0.00 | 0.00 | 0.00 | 46 | 1001.1 |
| 20260505171551 | 77 | 215 | 4.3 | 12.2 | 0.00 | 0.00 | 0.00 | 46 | 1001.1 |
| 20260505171040 | 76 | 235 | 2.6 | 12.2 | 0.00 | 0.00 | 0.00 | 47 | 1001.3 |
| 20260505170541 | 76 | 144 | 2.6 | 13.9 | 0.00 | 0.00 | 0.00 | 47 | 1001.4 |
| 20260505170051 | 76 | 233 | 4.3 | 13.9 | 0.00 | 0.00 | 0.00 | 46 | 1001.4 |
| 20260505165540 | 76 | 289 | 3.5 | 12.2 | 0.00 | 0.00 | 0.00 | 47 | 1001.6 |
| 20260505165040 | 76 | 99 | 3.5 | 10.4 | 0.00 | 0.00 | 0.00 | 46 | 1001.5 |
| 20260505164558 | 76 | 250 | 2.6 | 8.7 | 0.00 | 0.00 | 0.00 | 48 | 1001.7 |
| 20260505164041 | 76 | 213 | 2.6 | 9.6 | 0.00 | 0.00 | 0.00 | 49 | 1001.9 |
| 20260505163540 | 75 | 285 | 3.5 | 9.6 | 0.00 | 0.00 | 0.00 | 48 | 1002.1 |
| 20260505163048 | 75 | 101 | 3.5 | 9.6 | 0.00 | 0.00 | 0.00 | 47 | 1002.1 |
| 20260505162539 | 74 | 250 | 2.6 | 11.3 | 0.00 | 0.00 | 0.00 | 48 | 1002.3 |
| 20260505162040 | 74 | 53 | 3.5 | 11.3 | 0.00 | 0.00 | 0.00 | 49 | 1002.4 |
| 20260505161555 | 74 | 74 | 2.6 | 10.4 | 0.00 | 0.00 | 0.00 | 49 | 1002.5 |
| 20260505161042 | 73 | 139 | 1.7 | 10.4 | 0.00 | 0.00 | 0.00 | 50 | 1002.6 |
| 20260505160540 | 72 | 90 | 2.6 | 10.4 | 0.00 | 0.00 | 0.00 | 51 | 1002.7 |
| 20260505153104 | 67 | 337 | 1.7 | 8.7 | 0.00 | 0.03 | 0.00 | 56 | 1003.4 |
| 20260505152543 | 66 | 108 | 1.7 | 7.0 | 0.00 | 0.03 | 0.00 | 57 | 1003.7 |
| 20260505152039 | 66 | 87 | 1.7 | 6.1 | 0.00 | 0.03 | 0.00 | 57 | 1003.7 |
| 20260505151549 | 66 | 122 | 2.6 | 7.0 | 0.00 | 0.03 | 0.00 | 56 | 1003.7 |
| 20260505151040 | 66 | 75 | 1.7 | 7.0 | 0.00 | 0.03 | 0.00 | 56 | 1003.7 |
| 20260505150540 | 65 | 313 | 1.7 | 7.0 | 0.00 | 0.03 | 0.00 | 57 | 1003.9 |
| 20260505140542 | 64 | 49 | 0.0 | 6.1 | 0.00 | 0.03 | 0.00 | 60 | 1003.7 |
| 20260505130106 | 57 | 50 | 0.0 | 2.6 | 0.00 | 0.03 | 0.00 | 67 | 1003.9 |
| 20260505125038 | 58 | 0 | 0.0 | 2.6 | 0.00 | 0.03 | 0.00 | 66 | 1003.9 |
| 20260505124614 | 58 | 0 | 0.9 | 2.6 | 0.00 | 0.03 | 0.00 | 66 | 1004.0 |
| 20260505124038 | 57 | 0 | 0.0 | 2.6 | 0.00 | 0.03 | 0.00 | 68 | 1004.0 |
| 20260505123537 | 56 | 0 | 0.0 | 2.6 | 0.00 | 0.03 | 0.00 | 70 | 1004.2 |
| 20260505123109 | 56 | 95 | 0.9 | 2.6 | 0.00 | 0.03 | 0.00 | 68 | 1004.1 |
| 20260505122538 | 55 | 83 | 0.0 | 2.6 | 0.00 | 0.03 | 0.00 | 69 | 1004.0 |
| 20260505122038 | 54 | 0 | 0.9 | 2.6 | 0.00 | 0.03 | 0.00 | 70 | 1004.1 |
| 20260505121552 | 55 | 0 | 0.0 | 2.6 | 0.00 | 0.03 | 0.00 | 72 | 1004.3 |
| 20260505121039 | 54 | 0 | 0.0 | 2.6 | 0.00 | 0.03 | 0.00 | 71 | 1004.4 |
| 20260505120539 | 54 | 86 | 0.0 | 2.6 | 0.00 | 0.03 | 0.00 | 71 | 1004.7 |
| 20260505115538 | 53 | 0 | 0.9 | 2.6 | 0.00 | 0.03 | 0.00 | 70 | 1004.5 |
| 20260505115041 | 53 | 78 | 0.9 | 1.7 | 0.00 | 0.03 | 0.00 | 71 | 1004.4 |
| 20260505114548 | 52 | 91 | 0.0 | 1.7 | 0.00 | 0.03 | 0.00 | 72 | 1004.4 |
| 20260505114038 | 52 | 99 | 0.0 | 1.7 | 0.00 | 0.03 | 0.00 | 73 | 1004.4 |
| 20260505113539 | 51 | 0 | 0.0 | 1.7 | 0.00 | 0.03 | 0.00 | 74 | 1004.5 |
| 20260505113113 | 51 | 0 | 0.0 | 1.7 | 0.00 | 0.03 | 0.00 | 74 | 1004.5 |
| 20260505112540 | 51 | 0 | 0.0 | 2.6 | 0.00 | 0.03 | 0.00 | 74 | 1004.6 |
| 20260505112040 | 51 | 0 | 0.0 | 2.6 | 0.00 | 0.03 | 0.00 | 73 | 1004.5 |
| 20260505111556 | 51 | 84 | 0.9 | 3.5 | 0.00 | 0.03 | 0.00 | 73 | 1004.4 |
| 20260505111043 | 51 | 98 | 0.9 | 3.5 | 0.00 | 0.03 | 0.00 | 73 | 1004.4 |
| 20260505110540 | 51 | 0 | 0.9 | 3.5 | 0.00 | 0.03 | 0.00 | 73 | 1004.4 |
| 20260505102040 | 49 | 81 | 1.7 | 3.5 | 0.00 | 0.03 | 0.00 | 75 | 1004.3 |
| 20260505101549 | 49 | 89 | 1.7 | 3.5 | 0.00 | 0.03 | 0.00 | 75 | 1004.2 |
| 20260505101043 | 49 | 86 | 1.7 | 3.5 | 0.00 | 0.03 | 0.00 | 75 | 1004.2 |
| 20260505100542 | 49 | 91 | 0.9 | 1.7 | 0.00 | 0.03 | 0.00 | 75 | 1004.1 |
| 20260505100055 | 49 | 98 | 0.0 | 2.6 | 0.00 | 0.03 | 0.00 | 76 | 1004.0 |
| 20260505095540 | 49 | 99 | 0.9 | 3.5 | 0.00 | 0.03 | 0.00 | 75 | 1004.1 |
| 20260505095041 | 49 | 89 | 0.9 | 3.5 | 0.00 | 0.03 | 0.00 | 76 | 1004.2 |
| 20260505094549 | 48 | 99 | 0.9 | 2.6 | 0.00 | 0.03 | 0.00 | 76 | 1004.0 |
| 20260505094040 | 48 | 95 | 0.0 | 3.5 | 0.00 | 0.03 | 0.00 | 76 | 1004.2 |
| 20260505093540 | 49 | 0 | 0.0 | 4.3 | 0.00 | 0.03 | 0.00 | 75 | 1004.2 |
| 20260505093104 | 49 | 84 | 1.7 | 4.3 | 0.00 | 0.03 | 0.00 | 75 | 1004.1 |
| 20260505092541 | 49 | 90 | 2.6 | 4.3 | 0.00 | 0.03 | 0.00 | 74 | 1004.2 |
| 20260505092041 | 49 | 103 | 0.9 | 3.5 | 0.00 | 0.03 | 0.00 | 74 | 1004.1 |
| 20260505091547 | 49 | 0 | 0.9 | 3.5 | 0.00 | 0.03 | 0.00 | 75 | 1004.2 |
| 20260505091041 | 49 | 90 | 1.7 | 2.6 | 0.00 | 0.03 | 0.00 | 75 | 1004.2 |
| 20260505090540 | 49 | 103 | 0.9 | 2.6 | 0.00 | 0.03 | 0.00 | 75 | 1004.2 |
| 20260505090050 | 49 | 92 | 0.9 | 1.7 | 0.00 | 0.03 | 0.00 | 75 | 1004.3 |
| 20260505085540 | 50 | 0 | 0.0 | 0.9 | 0.00 | 0.03 | 0.00 | 74 | 1004.3 |
| 20260505085040 | 50 | 0 | 0.0 | 0.9 | 0.00 | 0.03 | 0.00 | 73 | 1004.2 |
| 20260505084554 | 50 | 0 | 0.0 | 1.7 | 0.00 | 0.03 | 0.00 | 73 | 1004.3 |
| 20260505084040 | 50 | 0 | 0.0 | 1.7 | 0.00 | 0.03 | 0.00 | 72 | 1004.3 |
| 20260505083539 | 50 | 98 | 0.0 | 1.7 | 0.00 | 0.03 | 0.00 | 73 | 1004.4 |
| 20260505083054 | 50 | 0 | 0.0 | 1.7 | 0.00 | 0.03 | 0.00 | 73 | 1004.4 |
| 20260505082540 | 50 | 0 | 0.0 | 1.7 | 0.00 | 0.03 | 0.00 | 73 | 1004.3 |
| 20260505082040 | 50 | 0 | 0.0 | 0.0 | 0.00 | 0.03 | 0.00 | 73 | 1004.4 |
| 20260505081553 | 50 | 0 | 0.0 | 1.7 | 0.00 | 0.03 | 0.00 | 73 | 1004.5 |
| 20260505081039 | 50 | 0 | 0.0 | 1.7 | 0.00 | 0.03 | 0.00 | 73 | 1004.5 |
| 20260505080539 | 50 | 265 | 0.0 | 1.7 | 0.00 | 0.03 | 0.00 | 73 | 1004.5 |
| 20260505080054 | 49 | 70 | 0.0 | 0.9 | 0.00 | 0.03 | 0.00 | 74 | 1004.6 |
| 20260505075538 | 49 | 0 | 0.0 | 0.9 | 0.00 | 0.03 | 0.00 | 74 | 1004.6 |
| 20260505075038 | 49 | 0 | 0.0 | 0.9 | 0.00 | 0.03 | 0.00 | 74 | 1004.7 |
| 20260505074555 | 49 | 0 | 0.0 | 0.9 | 0.00 | 0.03 | 0.00 | 73 | 1004.6 |
| 20260505074038 | 50 | 0 | 0.0 | 0.9 | 0.00 | 0.03 | 0.00 | 73 | 1004.6 |
| 20260505073538 | 49 | 225 | 0.0 | 0.9 | 0.00 | 0.03 | 0.00 | 74 | 1004.6 |
| 20260505073051 | 49 | 0 | 0.0 | 0.0 | 0.00 | 0.03 | 0.00 | 74 | 1004.5 |
| 20260505072538 | 50 | 0 | 0.0 | 0.9 | 0.00 | 0.03 | 0.00 | 73 | 1004.6 |
| 20260505072038 | 50 | 0 | 0.0 | 0.9 | 0.00 | 0.03 | 0.00 | 73 | 1004.6 |
| 20260505071550 | 50 | 0 | 0.0 | 0.9 | 0.00 | 0.03 | 0.00 | 73 | 1004.6 |
| 20260505071038 | 50 | 0 | 0.0 | 0.9 | 0.00 | 0.03 | 0.00 | 74 | 1004.6 |
| 20260505070538 | 49 | 235 | 0.0 | 0.9 | 0.00 | 0.03 | 0.00 | 76 | 1004.7 |
| 20260505070052 | 48 | 0 | 0.0 | 0.0 | 0.00 | 0.03 | 0.00 | 78 | 1004.7 |
| 20260505065538 | 49 | 0 | 0.0 | 0.0 | 0.00 | 0.03 | 0.00 | 77 | 1004.7 |
| 20260505065038 | 49 | 0 | 0.0 | 0.0 | 0.00 | 0.03 | 0.00 | 77 | 1004.7 |
| 20260505064554 | 49 | 0 | 0.0 | 0.9 | 0.00 | 0.03 | 0.00 | 77 | 1004.6 |
| 20260505064038 | 48 | 0 | 0.0 | 0.9 | 0.00 | 0.03 | 0.00 | 78 | 1004.6 |
| 20260505063541 | 48 | 0 | 0.0 | 0.9 | 0.00 | 0.03 | 0.00 | 78 | 1004.7 |
| 20260505063046 | 48 | 0 | 0.0 | 0.9 | 0.00 | 0.03 | 0.00 | 79 | 1004.7 |
| 20260505062538 | 48 | 0 | 0.0 | 0.9 | 0.00 | 0.03 | 0.00 | 79 | 1004.7 |
| 20260505062036 | 48 | 0 | 0.0 | 0.9 | 0.00 | 0.03 | 0.00 | 79 | 1004.7 |
| 20260505061552 | 49 | 0 | 0.0 | 2.6 | 0.00 | 0.03 | 0.00 | 78 | 1004.7 |
| 20260505061038 | 49 | 0 | 0.0 | 2.6 | 0.00 | 0.03 | 0.00 | 78 | 1004.7 |
| 20260505060538 | 49 | 99 | 0.9 | 4.3 | 0.00 | 0.03 | 0.00 | 78 | 1004.7 |
| 20260505060046 | 49 | 93 | 0.0 | 4.3 | 0.00 | 0.03 | 0.00 | 78 | 1004.7 |
| 20260505055539 | 49 | 104 | 2.6 | 4.3 | 0.00 | 0.03 | 0.00 | 78 | 1004.9 |
| 20260505055038 | 49 | 0 | 0.0 | 0.0 | 0.00 | 0.03 | 0.00 | 77 | 1004.7 |
| 20260505054546 | 49 | 0 | 0.0 | 0.9 | 0.00 | 0.03 | 0.00 | 77 | 1004.7 |
| 20260505054040 | 50 | 0 | 0.0 | 0.9 | 0.00 | 0.03 | 0.00 | 77 | 1004.7 |
| 20260505053538 | 50 | 0 | 0.0 | 0.9 | 0.00 | 0.03 | 0.00 | 77 | 1004.5 |
| 20260505053111 | 50 | 0 | 0.0 | 0.9 | 0.00 | 0.03 | 0.00 | 76 | 1004.5 |
| 20260505052538 | 50 | 0 | 0.0 | 1.7 | 0.00 | 0.03 | 0.00 | 77 | 1004.6 |
| 20260505052041 | 49 | 0 | 0.0 | 1.7 | 0.00 | 0.03 | 0.00 | 77 | 1004.5 |
| 20260505051549 | 49 | 0 | 0.0 | 1.7 | 0.00 | 0.03 | 0.00 | 77 | 1004.6 |
| 20260505051038 | 49 | 0 | 0.0 | 0.0 | 0.00 | 0.03 | 0.00 | 76 | 1004.6 |
| 20260505050538 | 50 | 0 | 0.0 | 0.0 | 0.00 | 0.03 | 0.00 | 75 | 1004.6 |
| 20260505050103 | 50 | 0 | 0.0 | 0.0 | 0.00 | 0.03 | 0.00 | 75 | 1004.5 |
| 20260505041550 | 50 | 0 | 0.0 | 1.7 | 0.00 | 0.03 | 0.00 | 74 | 1004.4 |
| 20260505041044 | 51 | 0 | 0.0 | 1.7 | 0.00 | 0.03 | 0.00 | 73 | 1004.4 |
| 20260505040541 | 51 | 234 | 0.0 | 0.9 | 0.00 | 0.03 | 0.00 | 72 | 1004.3 |
| 20260505040058 | 52 | 0 | 0.0 | 0.0 | 0.00 | 0.03 | 0.00 | 71 | 1004.3 |
| 20260505035540 | 52 | 0 | 0.0 | 0.0 | 0.00 | 0.03 | 0.03 | 71 | 1004.3 |
| 20260505035040 | 52 | 0 | 0.0 | 0.9 | 0.00 | 0.03 | 0.03 | 70 | 1004.3 |
| 20260505034612 | 52 | 0 | 0.0 | 0.9 | 0.00 | 0.03 | 0.03 | 70 | 1004.3 |
| 20260505034040 | 52 | 0 | 0.0 | 0.9 | 0.00 | 0.03 | 0.03 | 71 | 1004.3 |
| 20260505033540 | 52 | 0 | 0.0 | 0.0 | 0.00 | 0.03 | 0.03 | 71 | 1004.3 |
| 20260505033055 | 52 | 0 | 0.0 | 0.0 | 0.00 | 0.03 | 0.03 | 71 | 1004.3 |
| 20260505032540 | 52 | 0 | 0.0 | 0.0 | 0.00 | 0.03 | 0.03 | 71 | 1004.2 |
| 20260505032039 | 52 | 0 | 0.0 | 0.0 | 0.00 | 0.03 | 0.03 | 70 | 1004.3 |
| 20260505031555 | 52 | 0 | 0.0 | 0.0 | 0.00 | 0.03 | 0.03 | 70 | 1004.3 |
| 20260505031041 | 53 | 0 | 0.0 | 0.9 | 0.00 | 0.03 | 0.03 | 69 | 1004.3 |
| 20260505030541 | 53 | 0 | 0.0 | 0.9 | 0.00 | 0.03 | 0.03 | 69 | 1004.3 |
| 20260505030051 | 53 | 0 | 0.0 | 0.9 | 0.00 | 0.03 | 0.03 | 69 | 1004.3 |
| 20260505025542 | 53 | 0 | 0.0 | 0.9 | 0.00 | 0.03 | 0.03 | 68 | 1004.3 |
| 20260505025041 | 54 | 0 | 0.0 | 0.9 | 0.00 | 0.03 | 0.03 | 68 | 1004.3 |